[[{"header":{"parameterUnit":"m.s-1","parameterCategory":1,"la1":30.2991,"la2":30.254,"lo1":-89.0895,"lo2":-89.0444,"dy":0.0017,"dx":0.0017,"nx":28,"ny":28,"refTime":"2025-01-13T09:00:00:Z","depth":0,"parameterNumber":2,"parameterNumberName":"U-component_of_WINDS"},"data":[0,0,0,0,0,0,0,0,0,0,0,0,0,0,0,0,0,0,0,0,0,0,0,0,0,0,0,0,0,0,0,0,0,0,0,0,0,0,0,0,0,0,0,0,0,0,0,0,0,0,0,0,0,0,0,0,0,0,-4.6281,-4.6283,0,-4.646,-4.6462,-4.6464,-4.6394,-4.639,-4.6386,-4.6382,-4.6567,-4.6576,-4.6584,0,0,0,0,0,0,0,0,0,0,0,0,0,-4.588,-4.5887,-4.6281,-4.6283,-4.6286,-4.646,-4.6462,-4.6465,-4.6395,-4.639,-4.6385,-4.638,-4.6564,-4.6575,-4.6585,0,0,0,0,0,0,0,0,0,0,0,0,0,-4.6056,-4.589,-4.6281,-4.6272,-4.6272,-4.6459,-4.6463,-4.6466,-4.6396,-4.639,-4.6383,-4.6377,-4.6561,-4.6574,-4.6587,-4.6794,0,0,-4.6627,-4.6633,0,0,0,0,0,0,0,0,-4.6046,-4.6071,-4.6271,-4.6273,-4.6274,-4.6398,-4.6389,-4.6576,-4.6397,-4.6349,-4.6382,-4.6374,-4.6516,-4.6533,-4.658,-4.6802,-4.681,-4.6628,-4.6636,-4.6642,-4.6646,0,0,0,0,0,0,0,-4.6034,-4.6063,-4.6352,-4.6274,-4.6276,-4.6259,-4.6277,-4.6424,-4.6466,-4.6353,-4.6348,-4.637,-4.6516,-4.6567,-4.6584,-4.6813,-4.6628,-4.664,-4.6648,-4.6653,-4.7216,-4.7223,0,0,0,0,0,0,-4.6021,-4.6053,-4.6346,-4.6357,-4.6142,-4.6271,-4.6292,-4.6365,-4.6464,-4.6473,-4.6375,-4.6366,-4.6548,-4.6569,-4.659,-4.6841,-4.6642,-4.6654,-4.6662,-4.7209,-4.7217,-4.7225,0,0,0,0,0,0,-4.6013,-4.6048,-4.6339,-4.6204,-4.624,-4.6285,-4.6368,-4.6372,-4.6423,-4.6481,-4.6488,-4.6421,-4.6544,-4.6572,-4.6744,-4.6846,-4.666,-4.6672,-4.7201,-4.7212,-4.7221,-4.7344,0,0,0,0,0,0,-4.6002,-4.6045,-4.6124,-4.6206,-4.6247,-4.649,-4.6374,-4.638,-4.6446,-4.6436,-4.6525,-4.6534,-4.6541,-4.6725,-4.6757,-4.6861,-4.6683,-4.7192,-4.7206,-4.7218,-4.7331,-4.7357,-4.7379,0,0,0,0,0,-4.5987,-4.6152,-4.6129,-4.6164,-4.6347,-4.6496,-4.6519,-4.6524,-4.6454,-4.6535,-4.6572,-4.6531,-4.6829,-4.6743,-4.6779,-4.6889,-4.7185,-4.7202,-4.7217,-4.732,-4.7352,-4.7379,0,0,0,0,0,0,-4.6081,-4.6162,-4.6138,-4.6333,-4.6408,-4.6484,-4.6585,-4.6557,-4.6654,-4.6641,-4.6642,-4.6663,-4.6841,-4.6881,-4.6784,-4.7095,-4.6997,-4.7021,-4.7063,-4.7094,-4.7118,-4.7106,-4.6694,0,0,0,0,0,-4.6124,-4.6238,-4.6303,-4.6469,-4.6508,-4.654,-4.6605,-4.6602,-4.668,-4.6712,-4.6761,-4.6839,-4.695,-4.7023,-4.7129,-4.7335,-4.7354,-4.7428,-4.7452,-4.7472,-4.7494,-4.7608,-4.7642,-4.7277,-4.7277,-4.7276,0,0,-4.6215,-4.6274,-4.6346,-4.6489,-4.6547,-4.6666,-4.6567,-4.6697,-4.6785,-4.6731,-4.6898,-4.6937,-4.7023,-4.7214,-4.7301,-4.7253,-4.7598,-4.7492,-4.7508,-4.7519,-4.7627,-4.7662,-4.7693,-4.7288,-4.7286,-4.7284,0,0,-4.6443,-4.6497,-4.6643,-4.6702,-4.6791,-4.6811,-4.6846,-4.6926,-4.695,-4.7116,-4.7079,-4.7183,-4.7375,-4.7439,-4.7496,-4.7747,-4.7714,-4.7781,-4.791,-4.8021,-4.805,-4.8075,-4.8167,-4.82,-4.7801,-4.7802,-4.7802,0,-4.6545,-4.6722,-4.6721,-4.6854,-4.6919,-4.6874,-4.7023,-4.708,-4.7199,-4.7246,-4.719,-4.743,-4.7485,-4.7691,-4.7752,-4.7799,-4.784,-4.7772,-4.8045,-4.8071,-4.8095,-4.8183,-4.8217,-4.781,-4.7809,-4.7808,-4.7807,0,-4.6845,-4.6968,-4.7075,-4.719,-4.7267,-4.7407,-4.7428,-4.7505,-4.7495,-4.7521,-4.7692,-4.7756,-4.7875,-4.7923,-4.7914,-4.8128,-4.8096,-4.8043,-4.7946,-4.8138,-4.822,-4.8254,-4.7821,-4.7818,-4.7816,-4.7814,0,0,-4.7138,-4.7251,-4.7291,-4.7343,-4.7437,-4.7533,-4.767,-4.7785,-4.7853,-4.7936,-4.8053,-4.8215,-4.8167,-4.8232,-4.823,-4.8327,-4.8525,-4.8262,-4.8264,-4.8311,-4.8767,-4.8809,-4.8848,-4.8502,-4.8508,-4.8513,-4.8761,0,-4.7375,-4.7617,-4.762,-4.7843,-4.7958,-4.7916,-4.8037,-4.8108,-4.8136,-4.8238,-4.8268,-4.8384,-4.831,-4.835,-4.8443,-4.8481,-4.8617,-4.8462,-4.8613,-4.8618,-4.8596,-4.8891,-4.8935,-4.9166,-4.8793,-4.8798,-4.8802,0,-4.7684,-4.7777,-4.8012,-4.809,-4.8138,-4.8246,-4.8353,-4.845,-4.8529,-4.8543,-4.8616,-4.8599,-4.874,-4.8635,-4.8832,-4.8727,-4.8788,-4.8815,-4.8824,-4.8841,-4.8724,-4.8919,-4.924,-4.9276,-4.8853,-4.8849,-4.8845,0,-4.7879,-4.8062,-4.8227,-4.8272,-4.8366,-4.8444,-4.8487,-4.856,-4.8629,-4.8722,-4.8767,-4.8875,-4.8935,-4.9019,-4.9032,-4.8954,-4.923,-4.9126,-4.9247,-4.9248,-4.931,-4.9307,-4.9649,-4.9344,-4.9344,-4.9343,-4.9342,0,-4.8145,-4.8291,-4.8315,-4.8417,-4.8579,-4.8581,-4.8742,-4.8778,-4.8844,-4.8953,-4.8922,-4.9025,-4.9034,-4.914,-4.915,-4.9312,-4.9339,-4.9355,-4.9357,-4.936,-4.9359,-4.9403,-4.9388,-4.9352,-4.935,-4.9348,-4.9347,0,-4.8391,-4.8413,-4.859,-4.8664,-4.8686,-4.8803,-4.8867,-4.8965,-4.8988,-4.9127,-4.9159,-4.9197,-4.932,-4.934,-4.9485,-4.9492,-4.9687,-4.9671,-4.9661,-4.966,-4.9781,-4.9771,-5.0167,-5.022,-4.9877,-4.9881,-4.9883,0,-4.8561,-4.8673,-4.8759,-4.8829,-4.8876,-4.899,-4.906,-4.9065,-4.914,-4.9239,-4.9326,-4.9445,-4.9542,-4.974,-4.9782,-4.9892,-4.988,-5.0011,-4.9897,-4.9897,-4.9886,-4.9881,-4.9893,-5.0035,-5.0038,-5.0041,-5.0044,0,-4.8862,-4.8867,-4.897,-4.9077,-4.9162,-4.9247,-4.9327,-4.9386,-4.9401,-4.9487,-4.9613,-4.9687,-4.9835,-4.9955,-5.0065,-5.0109,-5.0081,-5.0079,-5.0113,-5.012,-5.0111,-5.012,-4.9725,-5.0071,-5.0068,-5.0066,-5.0065,-5.0063,-4.9078,-4.9175,-4.9251,-4.9367,-4.9427,-4.9503,-4.9599,-4.9634,-4.9739,-4.9859,-4.9855,-4.9994,-5.0071,-5.0215,-5.0267,-5.0376,-5.0334,-5.0383,-5.0396,-5.041,-5.0423,-5.009,-5.0396,-5.0395,-5.0394,-5.0393,-5.0393,0,-4.9379,-4.9426,-4.9532,-4.9645,-4.9736,-4.9699,-4.9785,-4.9865,-4.9987,-5.006,-5.0156,-5.03,-5.0417,-5.0466,-5.0581,-5.0658,-5.0648,-5.0689,-5.0685,-5.0696,-5.0452,-5.0413,-5.0695,-5.0695,-5.0695,-5.0695,-5.0695,-5.0695,-4.9547,-4.9711,-4.9726,-4.9919,-4.9965,-5.01,-5.0153,-5.0223,-5.0282,-5.0445,-5.0541,-5.0572,-5.0637,-5.0756,-5.0861,-5.0873,-5.0918,-5.0965,-5.0971,-5.0743,-5.0713,-5.0684,-5.0647,-5.0974,-5.0974,-5.1206,-5.1208,-5.121]},{"header":{"parameterUnit":"m.s-1","parameterCategory":1,"la1":30.2991,"la2":30.254,"lo1":-89.0895,"lo2":-89.0444,"dy":0.0017,"dx":0.0017,"nx":28,"ny":28,"refTime":"2025-01-13T09:00:00:Z","depth":0,"parameterNumber":3,"parameterNumberName":"V-component_of_WINDS"},"data":[0,0,0,0,0,0,0,0,0,0,0,0,0,0,0,0,0,0,0,0,0,0,0,0,0,0,0,0,0,0,0,0,0,0,0,0,0,0,0,0,0,0,0,0,0,0,0,0,0,0,0,0,0,0,0,0,0,0,-4.5529,-4.5529,0,-4.551,-4.551,-4.551,-4.5424,-4.5422,-4.542,-4.5418,-4.54,-4.5401,-4.5402,0,0,0,0,0,0,0,0,0,0,0,0,0,-4.5493,-4.5494,-4.5529,-4.5529,-4.5529,-4.551,-4.551,-4.551,-4.5424,-4.5422,-4.5419,-4.5417,-4.5399,-4.5401,-4.5402,0,0,0,0,0,0,0,0,0,0,0,0,0,-4.5495,-4.5495,-4.5529,-4.5484,-4.548,-4.551,-4.551,-4.5509,-4.5425,-4.5422,-4.5419,-4.5416,-4.5399,-4.5401,-4.5403,-4.5475,0,0,-4.5409,-4.541,0,0,0,0,0,0,0,0,-4.5495,-4.5496,-4.5491,-4.5487,-4.5483,-4.5466,-4.549,-4.5498,-4.5426,-4.5446,-4.5418,-4.5415,-4.5424,-4.5424,-4.5427,-4.5474,-4.5474,-4.5409,-4.541,-4.5411,-4.5412,0,0,0,0,0,0,0,-4.5495,-4.5497,-4.5522,-4.5491,-4.5486,-4.5465,-4.5462,-4.5491,-4.5452,-4.5444,-4.5438,-4.5436,-4.5421,-4.5425,-4.5426,-4.5473,-4.5409,-4.5411,-4.5412,-4.5413,-4.5579,-4.5582,0,0,0,0,0,0,-4.5501,-4.5497,-4.5522,-4.5521,-4.5481,-4.5468,-4.5465,-4.5475,-4.5452,-4.5445,-4.5439,-4.5432,-4.5423,-4.5424,-4.5425,-4.5508,-4.5411,-4.5413,-4.5414,-4.5576,-4.558,-4.5583,0,0,0,0,0,0,-4.5501,-4.5504,-4.5523,-4.5507,-4.5508,-4.5472,-4.5484,-4.5476,-4.5479,-4.5448,-4.5441,-4.545,-4.5421,-4.5422,-4.5463,-4.5507,-4.5414,-4.5416,-4.5572,-4.5577,-4.5582,-4.5676,0,0,0,0,0,0,-4.55,-4.5505,-4.5532,-4.5509,-4.5509,-4.5562,-4.5486,-4.5478,-4.5483,-4.5474,-4.5456,-4.545,-4.5419,-4.5461,-4.5465,-4.5508,-4.5417,-4.5568,-4.5575,-4.558,-4.5669,-4.5684,-4.5696,0,0,0,0,0,-4.5499,-4.5559,-4.5533,-4.5537,-4.5543,-4.5564,-4.5565,-4.5527,-4.5487,-4.5514,-4.5494,-4.5451,-4.5501,-4.5466,-4.547,-4.5514,-4.5565,-4.5573,-4.558,-4.5663,-4.5681,-4.5696,0,0,0,0,0,0,-4.5589,-4.5555,-4.5526,-4.5581,-4.5576,-4.555,-4.5583,-4.5547,-4.5553,-4.5545,-4.5497,-4.5494,-4.5542,-4.5532,-4.5493,-4.5583,-4.5526,-4.5535,-4.5588,-4.5604,-4.5618,-4.5619,-4.5419,0,0,0,0,0,-4.5615,-4.5635,-4.5605,-4.5656,-4.5655,-4.562,-4.5628,-4.5599,-4.5592,-4.559,-4.5572,-4.5568,-4.5582,-4.5593,-4.5604,-4.5667,-4.5662,-4.5699,-4.5713,-4.5724,-4.5732,-4.5765,-4.5781,-4.5607,-4.5607,-4.5607,0,0,-4.5669,-4.5653,-4.5669,-4.5674,-4.5667,-4.5689,-4.5619,-4.5645,-4.5661,-4.5594,-4.5631,-4.5619,-4.561,-4.5663,-4.5685,-4.5656,-4.5779,-4.5733,-4.5743,-4.5744,-4.5774,-4.579,-4.5805,-4.5612,-4.5611,-4.561,0,0,-4.5779,-4.5769,-4.5811,-4.5805,-4.5795,-4.5771,-4.5781,-4.576,-4.5749,-4.5786,-4.5735,-4.5754,-4.578,-4.5776,-4.5778,-4.5886,-4.5848,-4.5892,-4.5962,-4.5994,-4.6008,-4.602,-4.6059,-4.6073,-4.59,-4.59,-4.59,0,-4.5848,-4.5879,-4.5837,-4.5866,-4.587,-4.5809,-4.5851,-4.5847,-4.5842,-4.5846,-4.5813,-4.5845,-4.5835,-4.5885,-4.5912,-4.5915,-4.5925,-4.5893,-4.601,-4.6021,-4.6032,-4.6068,-4.6083,-4.5905,-4.5905,-4.5904,-4.5904,0,-4.5964,-4.5987,-4.6021,-4.6017,-4.6024,-4.606,-4.6023,-4.6036,-4.6006,-4.5986,-4.6025,-4.6011,-4.6018,-4.6028,-4.6,-4.6075,-4.6057,-4.6018,-4.596,-4.6054,-4.6088,-4.6101,-4.5913,-4.5911,-4.5909,-4.5908,0,0,-4.613,-4.6102,-4.6115,-4.6112,-4.6097,-4.6113,-4.6146,-4.6153,-4.6165,-4.6164,-4.619,-4.6214,-4.6177,-4.6179,-4.6149,-4.6178,-4.6265,-4.6135,-4.6134,-4.6159,-4.6347,-4.6377,-4.6393,-4.6239,-4.6241,-4.6243,-4.6348,0,-4.6235,-4.6289,-4.6252,-4.6312,-4.6333,-4.6275,-4.6304,-4.6298,-4.628,-4.6295,-4.6275,-4.6292,-4.6243,-4.6243,-4.6269,-4.6249,-4.6302,-4.6241,-4.6263,-4.6265,-4.6267,-4.6411,-4.6442,-4.6541,-4.636,-4.6363,-4.6364,0,-4.6364,-4.6368,-4.6431,-4.641,-4.6418,-4.6444,-4.6447,-4.6462,-4.6454,-4.6439,-4.6441,-4.6404,-4.6436,-4.6379,-4.6421,-4.6381,-4.6388,-4.638,-4.6382,-4.6383,-4.632,-4.6415,-4.6572,-4.6587,-4.6384,-4.6383,-4.6381,0,-4.6479,-4.65,-4.6539,-4.6539,-4.6517,-4.6537,-4.6528,-4.6517,-4.6524,-4.6527,-4.6531,-4.6538,-4.6542,-4.6549,-4.6515,-4.6477,-4.6562,-4.6502,-4.6551,-4.6552,-4.6571,-4.6571,-4.6731,-4.6576,-4.6576,-4.6576,-4.6576,0,-4.66,-4.6641,-4.6591,-4.6615,-4.6659,-4.6616,-4.6661,-4.6646,-4.6637,-4.6658,-4.6609,-4.663,-4.6584,-4.6601,-4.6575,-4.6614,-4.6616,-4.6605,-4.6598,-4.661,-4.6611,-4.6614,-4.6606,-4.658,-4.6579,-4.6578,-4.6578,0,-4.6736,-4.6704,-4.6743,-4.6719,-4.6714,-4.6747,-4.6726,-4.6748,-4.6727,-4.6754,-4.6758,-4.6725,-4.6742,-4.6709,-4.6721,-4.6704,-4.6759,-4.6741,-4.6762,-4.6756,-4.6807,-4.6802,-4.6974,-4.6995,-4.6827,-4.6829,-4.683,0,-4.6815,-4.6844,-4.6823,-4.6833,-4.6828,-4.6845,-4.6851,-4.681,-4.6819,-4.6812,-4.6835,-4.6848,-4.6856,-4.6885,-4.6863,-4.6872,-4.6854,-4.6913,-4.6855,-4.6866,-4.6855,-4.6853,-4.6856,-4.6925,-4.6927,-4.6929,-4.693,0,-4.6959,-4.6941,-4.6952,-4.6958,-4.6967,-4.6969,-4.6968,-4.698,-4.6936,-4.6949,-4.6965,-4.6971,-4.6984,-4.6997,-4.7001,-4.6993,-4.6955,-4.6949,-4.6961,-4.6973,-4.6984,-4.6979,-4.6795,-4.6945,-4.6944,-4.6943,-4.6942,-4.6941,-4.7068,-4.7092,-4.708,-4.7094,-4.7089,-4.7089,-4.7109,-4.709,-4.7102,-4.7109,-4.7084,-4.7106,-4.7097,-4.7099,-4.7095,-4.7112,-4.7085,-4.7102,-4.7106,-4.7111,-4.7119,-4.6981,-4.7112,-4.7112,-4.7111,-4.7111,-4.7111,0,-4.7209,-4.7199,-4.7212,-4.7212,-4.7223,-4.7186,-4.7183,-4.7195,-4.7215,-4.7209,-4.7218,-4.7237,-4.725,-4.7228,-4.7237,-4.7255,-4.7238,-4.7259,-4.7257,-4.7256,-4.7142,-4.7131,-4.7272,-4.7272,-4.7272,-4.7272,-4.7272,-4.7272,-4.7284,-4.7322,-4.7304,-4.7339,-4.7328,-4.7349,-4.7351,-4.7351,-4.7346,-4.7369,-4.7379,-4.7365,-4.7353,-4.7361,-4.7371,-4.7365,-4.737,-4.7398,-4.7385,-4.728,-4.7264,-4.7249,-4.7238,-4.7399,-4.7399,-4.7497,-4.7498,-4.7499]}]]